Pratica di Mare, Italy

3:59 AM CEST on March 30, 2017 (GMT +0200)
Pratica Di Mare Mil

Weather History for LIRE - November, 2011

Change the Weather History Date:

Thursday, November 24, 2011

  Actual Average Record
Temperature  
Mean Temperature 58 °F -  
Max Temperature 67 °F 58 °F 68 °F (2002)
Min Temperature 50 °F 43 °F 37 °F (2005)
Degree Days  
Heating Degree Days 6    
Growing Degree Days 8 (Base 50)    
Moisture  
Dew Point 49 °F    
Average Humidity 76    
Maximum Humidity 88    
Minimum Humidity 53    
Precipitation  
Precipitation 0.00 in 0.14 in - ()
Sea Level Pressure  
Sea Level Pressure 30.20 in    
Wind  
Wind Speed 9 mph ()    
Max Wind Speed 17 mph    
Max Gust Speed -    
Visibility 7.9 miles    
Events      
Averages and records for this station are not official NWS values.
T = Trace of Precipitation, MM = Missing Value Source: Averaged Metar Reports

Daily Weather History Graph

Daily Weather History Graph

Search for Another Location

Airport or City:

Trip Planner

Search our weather history database for the weather conditions in past years. The results will help you decide how hot, cold, wet, or windy it might be!

Date:

Astronomy

Nov. 24, 2011 Rise Set
Actual Time 7:09 AM CET 4:43 PM CET
Civil Twilight 6:38 AM CET 5:14 PM CET
Nautical Twilight 6:04 AM CET 5:48 PM CET
Astronomical Twilight 5:31 AM CET 6:21 PM CET
Moon 6:06 AM CET (11/24) 3:59 PM CET (11/24)
Length of Visible Light 10h 35m
Length of Day
9h 34m
Waning Crescent, 1% of the Moon is Illuminated
Nov 24
Waning Crescent
Nov 25
New
Dec 2
First Quarter
Dec 10
Full
Dec 18
Last Quarter

Hourly Weather History & Observations

Time (CET) Temp. Dew Point Humidity Pressure Visibility Wind Dir Wind Speed Gust Speed Precip Events Conditions
1:00 AM 55 °F 52 °F 84% 30.15 in 6 mi North 11.5 mph - -   Partly Cloudy
2:55 AM 53.6 °F 48.2 °F 82% 30.12 in - North - - N/A   Scattered Clouds
4:00 AM 53 °F 47 °F 74% 30.15 in 6 mi North 17.3 mph - -   Partly Cloudy
4:55 AM 51.8 °F 46.4 °F 82% 30.12 in - North - - N/A   Scattered Clouds
5:55 AM 51.8 °F 46.4 °F 82% 30.12 in - North - - N/A   Scattered Clouds
6:55 AM 50.0 °F 44.6 °F 82% 30.15 in - North - - N/A   Scattered Clouds
7:00 AM 51 °F 45 °F 74% 30.17 in 6 mi North 17.3 mph - -   Partly Cloudy
7:55 AM 51.8 °F 46.4 °F 82% 30.18 in - North - - N/A   Scattered Clouds
8:55 AM 53.6 °F 46.4 °F 77% 30.21 in - North - - N/A   Partly Cloudy
9:55 AM 57.2 °F 48.2 °F 72% 30.21 in - North - - N/A   Clear
10:55 AM 60.8 °F 51.8 °F 72% 30.21 in - North - - N/A   Clear
11:55 AM 64.4 °F 51.8 °F 64% 30.21 in - North - - N/A   Partly Cloudy
1:00 PM 64 °F 52 °F 56% 30.22 in 12 mi ENE 3.5 mph - -   Scattered Clouds
1:55 PM 66.2 °F 51.8 °F 60% 30.21 in - North - - N/A   Partly Cloudy
2:55 PM 66.2 °F 51.8 °F 60% 30.21 in - North - - N/A   Partly Cloudy
3:55 PM 64.4 °F 51.8 °F 64% 30.21 in - North - - N/A   Partly Cloudy
4:00 PM 64 °F 51 °F 53% 30.22 in 12 mi North 5.8 mph - -   Scattered Clouds
4:55 PM 60.8 °F 51.8 °F 72% 30.21 in - North - - N/A   Partly Cloudy
5:55 PM 57.2 °F 50.0 °F 77% 30.21 in - North - - N/A   Partly Cloudy
6:55 PM 55.4 °F 50.0 °F 82% 30.24 in - North - - N/A   Clear
7:00 PM 55 °F 50 °F 78% 30.25 in 7 mi North 3.5 mph - -   Partly Cloudy
7:55 PM 53.6 °F 50.0 °F 88% 30.24 in - North - - N/A   Clear
8:55 PM 51.8 °F 48.2 °F 88% 30.24 in - North - - N/A   Clear
10:00 PM 53 °F 50 °F 85% 30.27 in 6 mi North 11.5 mph - -   Partly Cloudy
10:55 PM 51.8 °F 48.2 °F 88% 30.27 in - North - - N/A   Clear
11:55 PM 51.8 °F 48.2 °F 88% 30.27 in - North - - N/A   Clear